Regional Weather Roundup
Issued by NWS

Home | Current Version | Previous Version | Graphics & Text | Print | Product List | Glossary On
Versions: 1 2 3 4 5 6 7 8 9 10 11 12 13 14 15 16 17 18 19 20 21 22 23 24 25 26 27 28 29 30 31 32 33 34 35 36 37 38 39 40 41 42 43 44 45 46 47 48 49 50
000
ASUS43 KMKX 212200
RWRWI

WISCONSIN REGIONAL WEATHER ROUNDUP
NATIONAL WEATHER SERVICE MILWAUKEE/SULLIVAN WI
500 PM CDT THU AUG 21 2014

NOTE: "FAIR" INDICATES FEW OR NO CLOUDS BELOW 12,000 FEET WITH NO
SIGNIFICANT WEATHER AND/OR OBSTRUCTIONS TO VISIBILITY.

WIZ001-002-006>008-014>016-023>028-212300-
NORTHWEST WISCONSIN

CITY           SKY/WX    TMP DP  RH WIND       PRES   REMARKS
SUPERIOR ARPT  CLOUDY    62  60  95 NE15      29.87F
ASHLAND        CLOUDY    69  64  84 N8        29.89F
HAYWARD        MOSUNNY   74  68  81 E6        29.87S
SIREN          CLOUDY    74  69  83 E3        29.85R
RICE LAKE      CLOUDY    74  68  79 SE8       29.87R
LADYSMITH      CLOUDY    76  69  77 SE8       29.89S
EAU CLAIRE     MOSUNNY   79  70  74 S14G21    29.84S HX  82
MENOMONIE      CLOUDY    78  70  77 E10G17    29.84R HX  80
NEW RICHMOND   CLOUDY    74  70  89 E7        29.83R
OSCEOLA        CLOUDY    74  72  93 E5        29.85R
$$

WIZ003>005-009-010-017-018-212300-
NORTH CENTRAL WISCONSIN

CITY           SKY/WX    TMP DP  RH WIND       PRES   REMARKS
WOODRUFF       CLOUDY    72  65  78 S8        29.93S
RHINELANDER    CLOUDY    67  63  87 E12       29.95S
EAGLE RIVER    CLOUDY    69  64  84 SE7       29.95R
LAND O LAKES   CLOUDY    69  64  84 SE7       29.96S
PHILLIPS       CLOUDY    70  66  88 SE8       29.91R
TOMAHAWK       CLOUDY    67  63  86 SE8       29.94S
MEDFORD        CLOUDY    69  66  92 E10       29.91S
MERRILL        CLOUDY    67  66  95 SE7       29.94S
$$

WIZ029-030-035-036-043>047-212300-
CENTRAL WISCONSIN

CITY           SKY/WX    TMP DP  RH WIND       PRES   REMARKS
WAUSAU         CLOUDY    69  66  90 E8        29.92S
MOSINEE        CLOUDY    72  70  94 E7        29.93S
MARSHFIELD     CLOUDY    76  68  76 SE6       29.90S
STEVENS POINT  CLOUDY    71  67  87 E7        29.93R
WAUPACA        CLOUDY    75  71  85 E7        29.93R
WAUTOMA        NOT AVBL
WISC RAPIDS    CLOUDY    77  69  76 S7        29.91S
CAMP DOUGLAS   NOT AVBL
$$

WIZ011>013-019>022-031-037>040-048>050-212300-
NORTHEAST WISCONSIN

CITY           SKY/WX    TMP DP  RH WIND       PRES   REMARKS
ANTIGO         CLOUDY    64  64  98 SE12      29.96S FOG
STURGEON BAY   CLOUDY    68  63  83 E6        29.97R
GREEN BAY      PTSUNNY   70  65  84 SE7       29.94S
MANITOWOC      NOT AVBL
APPLETON       PTSUNNY   72  66  83 SE6       29.93S
CLINTONVILLE   CLOUDY    70  64  83 E6        29.93S
OSHKOSH        CLOUDY    72  68  87 E6        29.93R
$$

WIZ032>034-041-042-053>061-212300-
SOUTHWEST WISCONSIN

CITY           SKY/WX    TMP DP  RH WIND       PRES   REMARKS
LA CROSSE      MOSUNNY   83  72  69 S10       29.84R HX  88
SPARTA         CLOUDY    80  69  69 S9        29.87S HX  83
VIROQUA        MOCLDY    79  74  85 S6        29.88S HX  82
BOSCOBEL       PTSUNNY   83  72  69 S3        29.85S HX  88
PRAIRIE DU CHI PTSUNNY   78  71  78 SE5       29.84S HX  80
PLATTEVILLE    FAIR      76  73  89 S8        29.89S
$$

WIZ056-057-062-063-064-067-068-212300-
SOUTH CENTRAL WISCONSIN

CITY           SKY/WX    TMP DP  RH WIND       PRES   REMARKS
BARABOO/DELLS  CLOUDY    76  69  79 S6        29.89S
LONE ROCK      NOT AVBL
WATERTOWN      CLOUDY    75  72  90 S7        29.91S
MADISON        CLOUDY    77  71  82 S10       29.89S
MIDDLETON      CLOUDY    78  74  87 S7        29.90S HX  80
MONROE         PTSUNNY   75  72  88 S12       29.89F
JANESVILLE     MOSUNNY   75  73  94 SE12      29.90F
$$

WIZ051-052-058>065-066-070>072-212300-
SOUTHEAST WISCONSIN

CITY           SKY/WX    TMP DP  RH WIND       PRES   REMARKS
MILWAUKEE      PTSUNNY   77  71  82 S8        29.92S
WAUKESHA       PTSUNNY   75  68  78 S8        29.93S
MILWAUKEE/TIMM CLOUDY    73  68  83 SE6       29.93F
RACINE         CLOUDY    76  69  79 S9        29.94F
BURLINGTON     CLOUDY    74  71  91 S9        29.92S
KENOSHA        CLOUDY    75  72  90 S12       29.93S
FOND DU LAC    PTSUNNY   78  69  73 S8        29.92R HX  80
SHEBOYGAN      CLOUDY    70  68  93 SE7       29.94R FOG
WEST BEND      CLOUDY    73  68  83 S8        29.94R
JUNEAU         CLOUDY    74  44  33 S10       29.93S
$$

LSZ147-162-212300-
LAKE SUPERIOR

STATION/POSITION TIME  TEMP    WIND        PRES    WAVE
                       AIR SEA DIR/SP/G            HT/PER
                 (UTC) (F)     (DEG/KT/KT) (MB)    (FT/S)
W MID LAKE BUOY  2050   60 59   60/ 12/ 14 1013.0F   2/ 3
PORT WING        2100   65      30/ 16/ 19 1011.5F
SAXON HARBOR     2100   66      70/  3/  6 1011.9F
$$

LMZ867-665-643>646-212300-
LAKE MICHIGAN

STATION/POSITION TIME  TEMP    WIND        PRES    WAVE
                       AIR SEA DIR/SP/G            HT/PER
                 (UTC) (F)     (DEG/KT/KT) (MB)    (FT/S)
N MID LAKE BUOY  2050   64 65   90/  6/  8 1014.5F   0
NORTHPORT PIER   2100   66      90/  5/  7 1014.6F
SISTER BAY       2141   70     130/  9/ 11   N/A
KEWAUNEE LAKESHO 2100   65     120/  3/  5 1013.3F
SHEBOYGAN LAKESH 2100   67 68  100/  2/  2 1013.6R
ATWATER BUOY     2100   70     160/ 14/ 16 1014.6F
MILWAUKEE LAKESH 2100   70     150/ 11/ 12   N/A
S MID LAKE BUOY  2050   69 68  170/  8/ 10 1014.0R   1
KENOSHA   LAKESH 2100   72     170/ 12/ 12 1012.9F
$$

TC  - TEMPERATURE IN CELSIUS
VSB - VISIBILITY IN STATUTE MILES
WCI - WIND CHILL INDEX
HX  - HEAT INDEX



USA.gov is the U.S. government's official web portal to all federal, state and local government web resources and services.